Tracking 22873 objects as of 23-Apr-2021
HD Live streaming from Space Station
objects crossing your sky now

CHINASAT 20

Track CHINASAT 20 now!
CHINASAT 20 is classified as:


NORAD ID: 28082
Int'l Code: 2003-052A
Perigee: 36,095.7 km
Apogee: 36,147.5 km
Inclination: 6.3 °
Period: 1,452.9 minutes
Semi major axis: 42492 km
RCS: 12.5893 m2 (large)
Launch date: November 14, 2003
Source: People's Republic of China (PRC)
Launch site: Xichang Space Center, China (XSC)

Dedicated military communications satellite.
aabbcc
Your satellite tracking list
Your tracking list is empty




NASA's NSSDC Master Catalog

Two Line Element Set (TLE):
1 28082U 03052A   21112.76438366 -.00000218  00000-0  00000-0 0  9992
2 28082   6.3485  64.4171 0006096  12.4628  36.6641  0.99113662 63748
Source of the keplerian elements: AFSPC